Tracking 21676 objects as of 29-Oct-2020
HD Live streaming from Space Station
objects crossing your sky now

ELEKTRON 3

Track ELEKTRON 3 now!
10-day predictions
ELEKTRON 3 is classified as:


NORAD ID: 829
Int'l Code: 1964-038A
Perigee: 414.9 km
Apogee: 6,167.8 km
Inclination: 60.8 °
Period: 157.5 minutes
Semi major axis: 9662 km
RCS: 2.8255 m2 (large)
Launch date: July 10, 1964
Source: Commonwealth of Independent States (former USSR) (CIS)
Launch site: TYURATAM MISSILE AND SPACE COMPLEX (TTMTR)
aabbcc
Your satellite tracking list
Your tracking list is empty




NASA's NSSDC Master Catalog

Two Line Element Set (TLE):
1   829U 64038A   20302.02779624 +.00000431 +00000-0 +13248-3 0  9993
2   829 060.8003 150.2852 2976951 161.7196 211.9226 09.14069093826696
Source of the keplerian elements: AFSPC